Location: Young's Pond
(41.2695°N, 72.7766°W)
Time: 21:49:10
(UTC-04:00)

CZ-4B R/B - Visible Passes

Search period start: 26 April 2015 00:00
Search period end: 06 May 2015 00:00
Orbit: 419 x 527 km, 97.5° (Epoch: 26 April)

Date Brightness Start Highest point End Pass type
(mag) Time Alt. Az. Time Alt. Az. Time Alt. Az.
26 Apr 4.3 23:02:32 16° NNE 23:02:32 16° NNE 23:03:37 10° N visible
27 Apr 4.4 22:34:23 12° NE 22:34:23 12° NE 22:34:51 10° NNE visible
28 Apr 4.7 00:08:31 15° NNW 00:08:31 15° NNW 00:09:13 10° NNW visible
28 Apr 4.3 23:40:21 20° N 23:40:21 20° N 23:41:35 10° N visible
29 Apr 4.1 23:12:10 20° NNE 23:12:10 20° NNE 23:13:33 10° N visible
30 Apr 4.2 22:43:59 14° NE 22:43:59 14° NE 22:45:00 10° NNE visible
01 May 4.7 00:18:06 14° NW 00:18:06 14° NW 00:18:46 10° NNW visible
01 May 4.2 23:49:53 21° NNW 23:49:53 21° NNW 23:51:12 10° NNW visible
02 May 3.9 23:21:39 23° N 23:21:39 23° N 23:23:14 10° N visible
03 May 4.0 22:53:25 17° NE 22:53:25 17° NE 22:54:49 10° NNE visible
04 May 4.7 00:27:32 13° NW 00:27:32 13° NW 00:28:04 10° NW visible
04 May 4.4 22:25:09 10° NE 22:25:09 10° NE 22:25:23 10° NE visible
04 May 4.2 23:59:16 21° NNW 23:59:16 21° NNW 00:00:37 10° NNW visible
05 May 3.8 23:30:59 25° N 23:30:59 25° N 23:32:43 10° N visible
